This is the latest recevied weather packets stored in our database for station/object F4ETJ-1. If no packets are shown the sender has not sent any weather packets the latest 10 day(s).
| Time | Temp. | Humidity | Pressure | Rain* | Wind** | Luminosity | Snow |
|---|---|---|---|---|---|---|---|
| 1787602695 | 22.22° C | 71% | 1006.1 hPa | 0 mm | - | - | - |
| 1787602337 | 22.78° C | 71% | 1006.1 hPa | 0 mm | - | - | - |
| 1787601974 | 22.22° C | 71% | 1006.1 hPa | 0 mm | - | - | - |
| 1787601614 | 22.22° C | 72% | 1006 hPa | 0 mm | - | - | - |
| 1787601254 | 22.22° C | 72% | 1006.1 hPa | 0 mm | - | - | - |
| 1787600893 | 22.22° C | 72% | 1006 hPa | 0 mm | - | - | - |
| 1787600533 | 22.78° C | 71% | 1005.9 hPa | 0 mm | - | - | - |
| 1787600173 | 22.78° C | 70% | 1005.7 hPa | 0 mm | - | - | - |
| 1787599812 | 23.33° C | 70% | 1005.5 hPa | 0 mm | - | - | - |
| 1787599452 | 23.33° C | 69% | 1005.4 hPa | 0 mm | - | - | - |
| 1787599092 | 23.33° C | 69% | 1005.3 hPa | 0 mm | - | - | - |
| 1787598731 | 23.33° C | 69% | 1005 hPa | 0 mm | - | - | - |
| 1787598371 | 23.89° C | 69% | 1004.9 hPa | 0 mm | - | - | - |
| 1787598010 | 23.89° C | 69% | 1004.5 hPa | 0 mm | - | - | - |
| 1787597650 | 23.89° C | 69% | 1004.5 hPa | 0 mm | - | - | - |
| 1787597290 | 23.89° C | 69% | 1004.4 hPa | 0 mm | - | - | - |
| 1787596929 | 24.44° C | 71% | 1004.4 hPa | 0 mm | - | - | - |
| 1787596569 | 25° C | 69% | 1004.4 hPa | 0 mm | - | - | - |
| 1787596209 | 25° C | 66% | 1004.2 hPa | 0 mm | - | - | - |
| 1787595848 | 25.56° C | 65% | 1004.1 hPa | 0 mm | - | - | - |
| 1787595488 | 25.56° C | 66% | 1004.2 hPa | 0 mm | - | - | - |
| 1787595128 | 25.56° C | 67% | 1004.2 hPa | 0 mm | - | - | - |
| 1787594767 | 26.11° C | 67% | 1004.2 hPa | 0 mm | - | - | - |
| 1787594407 | 26.67° C | 66% | 1004.2 hPa | 0 mm | - | - | - |
| 1787594047 | 26.67° C | 66% | 1004.3 hPa | 0 mm | - | - | - |
* Rain latest hour (hover to see other rain measurements)
** Current wind speed in m/s (hover to see current wind gust speed)